This is the latest recevied weather packets stored in our database for station/object VR2OT-10. If no packets are shown the sender has not sent any weather packets the latest 10 day(s).
| Time | Temp. | Humidity | Pressure | Rain* | Wind** | Luminosity | Snow |
|---|---|---|---|---|---|---|---|
| 1788146732 | 84° F | 77% | 749.8 mmHg | - | 8 mph, 135° | - | - |
| 1788144933 | 84° F | 77% | 749.9 mmHg | - | 4 mph, 135° | - | - |
| 1788144034 | 84° F | 76% | 749.9 mmHg | - | 3 mph, 180° | - | - |
| 1788143131 | 83° F | 77% | 749.8 mmHg | - | 2 mph, 135° | - | - |
| 1788142234 | 84° F | 77% | 749.8 mmHg | - | 3 mph, 135° | - | - |
| 1788141333 | 85° F | 80% | 749.8 mmHg | - | 2 mph, 180° | - | - |
| 1788140432 | 85° F | 78% | 749.8 mmHg | - | 1 mph, 180° | - | - |
| 1788139533 | 84° F | 81% | 749.8 mmHg | - | 1 mph, 180° | - | - |
| 1788138633 | 84° F | 79% | 749.9 mmHg | - | 0 mph | - | - |
| 1788137732 | 82° F | 81% | 749.9 mmHg | - | 1 mph, 135° | - | - |
| 1788136834 | 82° F | 81% | 750 mmHg | - | 1 mph, 180° | - | - |
| 1788135932 | 81° F | 80% | 750 mmHg | - | 0 mph | - | - |
| 1788135031 | 80° F | 82% | 750 mmHg | - | 2 mph, 135° | - | - |
| 1788134133 | 80° F | 82% | 749.8 mmHg | - | 3 mph, 135° | - | - |
| 1788133234 | 80° F | 81% | 749.8 mmHg | - | 1 mph, 135° | - | - |
| 1788132331 | 80° F | 80% | 749.5 mmHg | - | 0 mph | - | - |
| 1788131434 | 80° F | 82% | 749.5 mmHg | - | 0 mph | - | - |
| 1788130533 | 80° F | 81% | 749.3 mmHg | - | 0 mph | - | - |
| 1788129632 | 80° F | 81% | 749.2 mmHg | - | 2 mph, 180° | - | - |
| 1788128733 | 80° F | 82% | 749.1 mmHg | - | 3 mph, 225° | - | - |
| 1788127833 | 80° F | 82% | 749.1 mmHg | - | 4 mph, 270° | - | - |
| 1788126931 | 80° F | 84% | 748.9 mmHg | - | 3 mph, 270° | - | - |
| 1788126034 | 80° F | 83% | 748.9 mmHg | - | 3 mph, 270° | - | - |
| 1788125133 | 80° F | 83% | 748.7 mmHg | - | 1 mph, 225° | - | - |
| 1788124231 | 80° F | 84% | 748.6 mmHg | - | 1 mph, 225° | - | - |
* Rain since midnight (hover to see other rain measurements)
** Current wind speed in m/s (hover to see current wind gust speed)